Regional Weather Roundup
Issued by NWS

Home | Current Version | Previous Version | Graphics & Text | Print | Product List | Glossary On
Versions: 1 2 3 4 5 6 7 8 9 10 11 12 13 14 15 16 17 18 19 20 21 22 23 24 25 26 27 28 29 30 31 32 33 34 35 36 37 38 39 40 41 42 43 44 45 46 47 48 49 50
000
ASUS43 KLOT 252309
RWRIL

ILLINOIS REGIONAL WEATHER ROUNDUP
NATIONAL WEATHER SERVICE CHICAGO/ROMEOVILLE IL
600 PM CDT SUN SEP 25 2016

NOTE: "FAIR" INDICATES FEW OR NO CLOUDS BELOW 12,000 FEET WITH NO
SIGNIFICANT WEATHER AND/OR OBSTRUCTIONS TO VISIBILITY.

* THESE STATIONS ARE NOT UNDER NWS QUALITY CONTROL. THEY ALSO MAY NOT
  REPORT WEATHER SUCH AS PRECIPITATION OR FOG.

ILZ001-002-007-009-015-016-024-260000-
NORTHWEST ILLINOIS

CITY           SKY/WX    TMP DP  RH WIND       PRES   REMARKS
MOLINE         CLOUDY    72  58  61 W18G26    29.97R
STERLING*      PTCLDY    78  67  68 W16       29.92R HX  80
SAVANNA*       CLOUDY    75  65  71 W13G21    29.93R
$$

ILZ003-004-008-010-011-017-018-260000-
NORTH CENTRAL ILLINOIS

CITY           SKY/WX    TMP DP  RH WIND       PRES   REMARKS
ROCKFORD       MOCLDY    80  66  62 W12       29.89S HX  82
FREEPORT*      CLOUDY    76  65  69 W15G21    29.92R
ROCHELLE*      PTCLDY    79  66  63 W12G18    29.90S HX  81
DE KALB*       CLEAR     81  63  54 W17       29.90S HX  82
$$

ILZ005-006-012>014-019>023-260000-
NORTHEAST ILLINOIS

CITY           SKY/WX    TMP DP  RH WIND       PRES   REMARKS
CHICAGO-OHARE  CLOUDY    82  65  56 W12G21    29.87F HX  84
CHICAGO-MIDWAY MOCLDY    82  66  58 S9        29.88F HX  84
AURORA         MOCLDY    84  67  56 SW15      29.89S HX  86
LANSING*       CLOUDY    80  70  72 S12       29.91S HX  82
JOLIET*        CLOUDY    82  71  69 SW6       29.90S HX  86
WAUKEGAN       CLOUDY    72  71  97 SE7       29.89S THUNDER FOG
DUPAGE AIRPORT CLOUDY    78  67  68 SW5       29.89R HX  80
KANKAKEE*      CLOUDY    78  69  74 S6        29.92S HX  80
WHEELING       LGT RAIN  74  69  85 NW7       29.89R
MORRIS*        PTCLDY    83  67  58 SW6       29.88F HX  86
ROMEOVILLE*    CLOUDY    80  71  74 SW8       29.89S HX  83
NORTHERLY ISL    N/A     83  63  50 S6          N/A  HX  84
$$

LMZ740>746-260000-
SOUTHERN LAKE MICHIGAN

STATION/POSITION SKY/WX   TEMP    WIND        PRES    VSBY  WAVE
                          AIR SEA DIR/SP/G                  HT/PER
                          (F)     (DEG/KT/KT) (MB)    (MI)  (FT/S)
SOUTHERN BUOY              74 72  130/ 16/ 19 1011.2F         2/ 4
WILMETTE HARBOR            70 65  200/  8/ 12   N/A           2/ 4
HARRISON CRIB              78     150/ 15/ 16   N/A
BURNHAM HARBOR             82     170/  9/ 14   N/A
CALUMET HARBOR             83     160/ 11/ 13 1012.0F
BURNS HARBOR               82     180/ 10/ 21 1013.5F
MICHIGAN CITY              82     130/  8/ 10   N/A
MICHIGAN CITY 6N           74 71  160/ 10/ 14   N/A           1
ST. JOSEPH                 76 69  140/ 12/ 14 1012.8F         1
$$

ILZ025>027-034>036-040-047-049-050-058-095>099-260000-
WEST-CENTRAL ILLINOIS

CITY           SKY/WX    TMP DP  RH WIND       PRES   REMARKS
QUINCY         PTCLDY    76  65  68 W13       30.01R
GALESBURG*     CLOUDY    74  64  69 W15       29.98R
MACOMB*        CLEAR     76  65  67 W14       30.00R
JACKSONVILLE*  MOCLDY    84  66  54 W10G17    29.97R HX  86
PITTSFIELD*    CLEAR     81  67  63 W10G17    30.01R HX  84
$$

ILZ028>032-037-038-041>044-048-051>054-059>061-260000-
CENTRAL ILLINOIS

CITY           SKY/WX    TMP DP  RH WIND       PRES   REMARKS
PONTIAC        PTCLDY    85  70  60 SW9       29.93S HX  89
BLOOMINGTON    PTCLDY    83  67  58 SW12      29.95S HX  85
DECATUR        CLOUDY    86  64  47 W10       29.96S HX  87
PEORIA         CLOUDY    83  66  56 W12       29.94R HX  85
LACON*         PTCLDY    83  62  48 W10G20    29.91S HX  83
SPRINGFIELD    PTCLDY    87  65  47 W9        29.96R HX  89
TAYLORVILLE    CLOUDY    86  65  49 W10       29.97R HX  87
$$

ILZ033-039-045-046-055>057-062-063-260000-
EAST-CENTRAL ILLINOIS

CITY           SKY/WX    TMP DP  RH WIND       PRES   REMARKS
CHAMPAIGN      PTCLDY    82  67  60 S8        29.96S HX  84
RANTOUL*       PTCLDY    83  70  65 S5        29.96R HX  86
MATTOON        PTCLDY    81  66  60 S7        29.97S HX  83
PARIS*         CLOUDY    75  68  78 CALM      29.99F
$$

ILZ079-100>102-260000-
SOUTHWEST ILLINOIS

CITY           SKY/WX    TMP DP  RH WIND       PRES   REMARKS
ALTON          PTCLDY    81  66  61 W7        29.98S HX  83
BELLEVILLE     CLEAR     85  68  56 W5        29.97R HX  88
CAHOKIA*       PTCLDY    85  66  53 W7        29.97R HX  87
SPARTA*        PTCLDY    80  69  68 S3        30.00S HX  83
$$

ILZ064>066-069>071-074>076-080>082-084>086-088>090-092>094-260000-
SOUTH-CENTRAL ILLINOIS

CITY           SKY/WX    TMP DP  RH WIND       PRES   REMARKS
CARBONDALE     CLEAR     82  73  74 S6        29.98F HX  87
CAIRO*         CLEAR     88  70  55 SE3       29.97S HX  93
EFFINGHAM*     PTCLDY    81  74  79 SE3       29.99S HX  85
MARION         PTCLDY    88  68  51 SW6       29.99F HX  91
MT. VERNON     PTCLDY    82  66  57 SW5       29.99S HX  85
CENTRALIA*     MOCLDY    84  72  67 SW5       29.98S HX  90
SALEM*         PTCLDY    83  70  64 CALM      29.98S HX  87
METROPOLIS*    CLEAR     89  71  56 CALM      29.99S HX  95
$$

ILZ067-068-072-073-078-083-087-091-260000-
SOUTHEAST ILLINOIS

CITY           SKY/WX    TMP DP  RH WIND       PRES   REMARKS
LAWRENCEVILLE  CLEAR     85  68  56 S7        29.98F HX  88
FLORA*         CLEAR     84  70  64 S6        29.98S HX  88
FAIRFIELD*     CLEAR     85  68  55 SW3       29.97S HX  88
HARRISBURG*    CLEAR     87  71  57 S3        29.99S HX  92
ROBINSON*      PTCLDY    82  70  67 S5        29.98F HX  85
CARMI*         CLEAR     86  70  57 SW5       29.98S HX  91
$$

ABBREVIATIONS USED IN REMARKS
   TC - TEMPERATURE IN CELSIUS
  WCI - WIND CHILL INDEX
   HX - HEAT INDEX
  VSB - VISIBILITY
$$





USA.gov is the U.S. government's official web portal to all federal, state and local government web resources and services.